User: anonymous   Login
Location: Caltech
(34.1382°N, 118.1253°W)
Time: 04:20:38
(UTC-07:00)
Language:

DELTA 2 R/B (1) - Orbit

View from above orbital plane
View from above orbital plane
View from above satellite
View from above satellite

Ground track
Ground track

The orbit data is extracted from the following two-line orbital elements,

1 27665U 03005C   16237.33708853  .00000055  00000-0  55652-4 0  9997
2 27665  39.5750 181.7374 0008798 146.1526 333.1290 14.28415869708470
Epoch (UTC): 24 August 2016 08:05:24
Eccentricity: 0.0008798
inclination: 39.5750°
perigee height: 791 km
apogee height: 803 km
right ascension of ascending node: 181.7374°
argument of perigee: 146.1526°
revolutions per day: 14.28415869
mean anomaly at epoch: 333.1290°
orbit number at epoch: 70847

The dashed part of the orbit path shows where the satellite is in the earth's shadow,  

DLR